| time (UTC) | temp F | wind direction | speed MPH | gust MPH | rain 1hr in | rain 24hr in | rain mn in | humidity % | barometer mb |
| 20260507033506 | 54 | 36 | 0.0 | 4.0 | 0.00 | 0.00 | 0.00 | 60 | 1018.8 |
| 20260507033010 | 54 | 38 | 1.0 | 4.0 | 0.00 | 0.00 | 0.00 | 60 | 1018.6 |
| 20260507032504 | 54 | 34 | 0.0 | 4.0 | 0.00 | 0.00 | 0.00 | 60 | 1018.5 |
| 20260507032008 | 55 | 34 | 1.0 | 4.0 | 0.00 | 0.00 | 0.00 | 60 | 1018.5 |
| 20260507031508 | 55 | 32 | 0.0 | 4.0 | 0.00 | 0.00 | 0.00 | 60 | 1018.5 |
| 20260507031011 | 55 | 31 | 1.0 | 4.0 | 0.00 | 0.00 | 0.00 | 59 | 1018.4 |
| 20260507030508 | 55 | 57 | 1.0 | 2.0 | 0.00 | 0.00 | 0.00 | 59 | 1018.3 |
| 20260507030008 | 55 | 58 | 0.0 | 2.0 | 0.00 | 0.00 | 0.00 | 58 | 1018.4 |
| 20260507025508 | 55 | 58 | 0.0 | 3.0 | 0.00 | 0.00 | 0.00 | 58 | 1018.4 |
| 20260507025003 | 55 | 58 | 0.0 | 3.0 | 0.00 | 0.00 | 0.00 | 58 | 1018.3 |
| 20260507024504 | 55 | 35 | 1.0 | 2.0 | 0.00 | 0.00 | 0.00 | 59 | 1018.2 |
| 20260507024007 | 55 | 356 | 1.0 | 2.0 | 0.00 | 0.00 | 0.00 | 59 | 1018.1 |
| 20260507023503 | 56 | 1 | 0.0 | 3.0 | 0.00 | 0.00 | 0.00 | 59 | 1018.1 |
| 20260507023025 | 56 | 22 | 1.0 | 3.0 | 0.00 | 0.00 | 0.00 | 59 | 1018.1 |
| 20260507022506 | 56 | 17 | 0.0 | 2.0 | 0.00 | 0.00 | 0.00 | 58 | 1018.0 |
| 20260507022004 | 56 | 38 | 1.0 | 2.0 | 0.00 | 0.00 | 0.00 | 58 | 1018.0 |
| 20260507021520 | 56 | 38 | 0.0 | 2.0 | 0.00 | 0.00 | 0.00 | 57 | 1018.0 |
| 20260507021007 | 56 | 23 | 0.0 | 0.0 | 0.00 | 0.00 | 0.00 | 56 | 1018.0 |
| 20260507020507 | 57 | 23 | 0.0 | 0.0 | 0.00 | 0.00 | 0.00 | 56 | 1017.9 |
| 20260507020018 | 57 | 23 | 0.0 | 0.0 | 0.00 | 0.00 | 0.00 | 55 | 1017.8 |
| 20260507015504 | 57 | 23 | 0.0 | 2.0 | 0.00 | 0.00 | 0.00 | 55 | 1017.7 |
| 20260507015014 | 57 | 23 | 0.0 | 3.0 | 0.00 | 0.00 | 0.00 | 55 | 1017.6 |
| 20260507014516 | 58 | 23 | 0.0 | 3.0 | 0.00 | 0.00 | 0.00 | 54 | 1017.5 |
| 20260507014003 | 58 | 37 | 1.0 | 3.0 | 0.00 | 0.00 | 0.00 | 53 | 1017.5 |
| 20260507013508 | 58 | 38 | 1.0 | 3.0 | 0.00 | 0.00 | 0.00 | 53 | 1017.4 |
| 20260507013016 | 59 | 31 | 0.0 | 6.0 | 0.00 | 0.00 | 0.00 | 52 | 1017.3 |
| 20260507012514 | 59 | 31 | 2.0 | 6.0 | 0.00 | 0.00 | 0.00 | 52 | 1017.2 |
| 20260507012007 | 59 | 21 | 1.0 | 6.0 | 0.00 | 0.00 | 0.00 | 51 | 1017.1 |
| 20260507011508 | 59 | 19 | 2.0 | 6.0 | 0.00 | 0.00 | 0.00 | 52 | 1017.1 |
| 20260507011010 | 59 | 49 | 1.0 | 4.0 | 0.00 | 0.00 | 0.00 | 51 | 1017.0 |
| 20260507010506 | 60 | 41 | 2.0 | 4.0 | 0.00 | 0.00 | 0.00 | 51 | 1017.0 |
| 20260507010009 | 60 | 48 | 1.0 | 7.0 | 0.00 | 0.00 | 0.00 | 50 | 1017.0 |
| 20260507005517 | 60 | 21 | 1.0 | 7.0 | 0.00 | 0.00 | 0.00 | 49 | 1016.9 |
| 20260507005006 | 60 | 31 | 1.0 | 7.0 | 0.00 | 0.00 | 0.00 | 50 | 1016.9 |
| 20260507004524 | 60 | 17 | 1.0 | 8.0 | 0.00 | 0.00 | 0.00 | 49 | 1016.9 |
| 20260507004008 | 61 | 53 | 3.0 | 10.0 | 0.00 | 0.00 | 0.00 | 48 | 1016.8 |
| 20260507003511 | 61 | 36 | 4.0 | 10.0 | 0.00 | 0.00 | 0.00 | 48 | 1016.8 |
| 20260507003024 | 61 | 19 | 4.0 | 9.0 | 0.00 | 0.00 | 0.00 | 47 | 1016.8 |
| 20260507002508 | 61 | 20 | 4.0 | 12.0 | 0.00 | 0.00 | 0.00 | 47 | 1016.7 |
| 20260507002004 | 61 | 46 | 5.0 | 12.0 | 0.00 | 0.00 | 0.00 | 46 | 1016.7 |
| 20260507001521 | 62 | 40 | 5.0 | 10.0 | 0.00 | 0.00 | 0.00 | 47 | 1016.6 |
| 20260507001008 | 62 | 48 | 5.0 | 11.0 | 0.00 | 0.00 | 0.00 | 47 | 1016.6 |
| 20260507000507 | 62 | 50 | 6.0 | 11.0 | 0.00 | 0.00 | 0.00 | 47 | 1016.5 |
| 20260507000026 | 62 | 48 | 3.0 | 11.0 | 0.00 | 0.00 | 0.00 | 47 | 1016.5 |
| 20260506235507 | 62 | 37 | 3.0 | 9.0 | 0.00 | 0.00 | 0.00 | 48 | 1016.5 |
| 20260506235010 | 62 | 32 | 3.0 | 10.0 | 0.00 | 0.00 | 0.00 | 47 | 1016.5 |
| 20260506234518 | 62 | 33 | 3.0 | 12.0 | 0.00 | 0.00 | 0.00 | 47 | 1016.5 |
| 20260506234006 | 62 | 26 | 6.0 | 12.0 | 0.00 | 0.00 | 0.00 | 47 | 1016.3 |
| 20260506233510 | 62 | 25 | 6.0 | 11.0 | 0.00 | 0.00 | 0.00 | 48 | 1016.4 |
| 20260506233013 | 62 | 30 | 6.0 | 11.0 | 0.00 | 0.00 | 0.00 | 48 | 1016.4 |
| 20260506232511 | 63 | 34 | 3.0 | 10.0 | 0.00 | 0.00 | 0.00 | 48 | 1016.4 |
| 20260506232011 | 63 | 71 | 5.0 | 10.0 | 0.00 | 0.00 | 0.00 | 49 | 1016.3 |
| 20260506231513 | 63 | 85 | 4.0 | 8.0 | 0.00 | 0.00 | 0.00 | 48 | 1016.3 |
| 20260506231009 | 63 | 56 | 3.0 | 15.0 | 0.00 | 0.00 | 0.00 | 47 | 1016.2 |
| 20260506230510 | 63 | 49 | 4.0 | 14.0 | 0.00 | 0.00 | 0.00 | 47 | 1016.2 |
| 20260506230009 | 63 | 23 | 5.0 | 11.0 | 0.00 | 0.00 | 0.00 | 48 | 1016.1 |
| 20260506225507 | 63 | 30 | 4.0 | 14.0 | 0.00 | 0.00 | 0.00 | 47 | 1016.1 |
| 20260506225009 | 63 | 33 | 7.0 | 14.0 | 0.00 | 0.00 | 0.00 | 48 | 1016.1 |
| 20260506224530 | 64 | 35 | 5.0 | 12.0 | 0.00 | 0.00 | 0.00 | 47 | 1016.1 |
| 20260506224007 | 64 | 50 | 4.0 | 11.0 | 0.00 | 0.00 | 0.00 | 47 | 1016.0 |
| 20260506223506 | 64 | 327 | 1.0 | 12.0 | 0.00 | 0.00 | 0.00 | 47 | 1015.9 |
| 20260506223024 | 64 | 357 | 5.0 | 13.0 | 0.00 | 0.00 | 0.00 | 46 | 1015.9 |
| 20260506222512 | 65 | 36 | 4.0 | 15.0 | 0.00 | 0.00 | 0.00 | 45 | 1015.8 |
| 20260506222011 | 65 | 354 | 6.0 | 15.0 | 0.00 | 0.00 | 0.00 | 47 | 1015.7 |
| 20260506221526 | 65 | 318 | 4.0 | 15.0 | 0.00 | 0.00 | 0.00 | 47 | 1015.7 |
| 20260506221008 | 65 | 82 | 5.0 | 11.0 | 0.00 | 0.00 | 0.00 | 45 | 1015.7 |
| 20260506220508 | 65 | 311 | 4.0 | 12.0 | 0.00 | 0.00 | 0.00 | 46 | 1015.7 |
| 20260506220029 | 63 | 32 | 5.0 | 12.0 | 0.00 | 0.00 | 0.00 | 50 | 1015.7 |
| 20260506215505 | 63 | 50 | 6.0 | 12.0 | 0.00 | 0.00 | 0.00 | 48 | 1015.7 |
| 20260506215009 | 63 | 31 | 4.0 | 15.0 | 0.00 | 0.00 | 0.00 | 48 | 1015.7 |
| 20260506214522 | 64 | 36 | 9.0 | 15.0 | 0.00 | 0.00 | 0.00 | 47 | 1015.6 |
| 20260506214009 | 64 | 26 | 7.0 | 13.0 | 0.00 | 0.00 | 0.00 | 47 | 1015.6 |
| 20260506213510 | 64 | 289 | 4.0 | 16.0 | 0.00 | 0.00 | 0.00 | 47 | 1015.5 |
| 20260506213019 | 64 | 36 | 8.0 | 16.0 | 0.00 | 0.00 | 0.00 | 46 | 1015.6 |
| 20260506212510 | 65 | 307 | 6.0 | 15.0 | 0.00 | 0.00 | 0.00 | 45 | 1015.7 |
| 20260506212010 | 64 | 58 | 8.0 | 15.0 | 0.00 | 0.00 | 0.00 | 48 | 1015.7 |
| 20260506211515 | 63 | 40 | 6.0 | 12.0 | 0.00 | 0.00 | 0.00 | 49 | 1015.7 |
| 20260506211009 | 64 | 12 | 6.0 | 11.0 | 0.00 | 0.00 | 0.00 | 49 | 1015.7 |
| 20260506210508 | 64 | 21 | 5.0 | 16.0 | 0.00 | 0.00 | 0.00 | 49 | 1015.6 |
| 20260506210029 | 65 | 330 | 4.0 | 16.0 | 0.00 | 0.00 | 0.00 | 51 | 1015.7 |
| 20260506205509 | 64 | 49 | 4.0 | 15.0 | 0.00 | 0.00 | 0.00 | 52 | 1015.7 |
| 20260506205008 | 63 | 33 | 7.0 | 15.0 | 0.00 | 0.00 | 0.00 | 50 | 1015.9 |
| 20260506204523 | 63 | 12 | 5.0 | 14.0 | 0.00 | 0.00 | 0.00 | 51 | 1016.0 |
| 20260506204007 | 63 | 23 | 8.0 | 13.0 | 0.00 | 0.00 | 0.00 | 52 | 1016.0 |
| 20260506203507 | 63 | 7 | 6.0 | 12.0 | 0.00 | 0.00 | 0.00 | 51 | 1016.1 |
| 20260506203009 | 63 | 63 | 8.0 | 12.0 | 0.00 | 0.00 | 0.00 | 51 | 1016.2 |
| 20260506202504 | 63 | 63 | 4.0 | 9.0 | 0.00 | 0.00 | 0.00 | 51 | 1016.2 |
| 20260506202007 | 63 | 60 | 5.0 | 10.0 | 0.00 | 0.00 | 0.00 | 50 | 1016.3 |
| 20260506201508 | 63 | 66 | 4.0 | 10.0 | 0.00 | 0.00 | 0.00 | 52 | 1016.3 |
| 20260506201008 | 64 | 79 | 4.0 | 12.0 | 0.00 | 0.00 | 0.00 | 50 | 1016.3 |
| 20260506200506 | 64 | 23 | 4.0 | 12.0 | 0.00 | 0.00 | 0.00 | 51 | 1016.5 |
| 20260506200005 | 63 | 15 | 3.0 | 11.0 | 0.00 | 0.00 | 0.00 | 53 | 1016.5 |
| 20260506195507 | 62 | 46 | 6.0 | 11.0 | 0.00 | 0.00 | 0.00 | 52 | 1016.5 |
| 20260506195003 | 63 | 69 | 4.0 | 14.0 | 0.00 | 0.00 | 0.00 | 52 | 1016.4 |
| 20260506194505 | 63 | 29 | 8.0 | 14.0 | 0.00 | 0.00 | 0.00 | 51 | 1016.4 |
| 20260506194012 | 64 | 48 | 6.0 | 15.0 | 0.00 | 0.00 | 0.00 | 51 | 1016.4 |
| 20260506193503 | 63 | 65 | 7.0 | 15.0 | 0.00 | 0.00 | 0.00 | 55 | 1016.3 |
| 20260506193020 | 64 | 13 | 8.0 | 13.0 | 0.00 | 0.00 | 0.00 | 50 | 1016.4 |
| 20260506192509 | 64 | 18 | 4.0 | 13.0 | 0.00 | 0.00 | 0.00 | 51 | 1016.4 |
| 20260506192003 | 64 | 23 | 9.0 | 15.0 | 0.00 | 0.00 | 0.00 | 50 | 1016.6 |
| 20260506191520 | 64 | 88 | 7.0 | 15.0 | 0.00 | 0.00 | 0.00 | 53 | 1016.8 |
| 20260506191004 | 63 | 101 | 6.0 | 12.0 | 0.00 | 0.00 | 0.00 | 54 | 1016.9 |
| 20260506190503 | 63 | 88 | 7.0 | 13.0 | 0.00 | 0.00 | 0.00 | 52 | 1017.0 |
| 20260506190018 | 62 | 42 | 6.0 | 13.0 | 0.00 | 0.00 | 0.00 | 51 | 1017.2 |
| 20260506185505 | 63 | 17 | 9.0 | 13.0 | 0.00 | 0.00 | 0.00 | 53 | 1017.1 |
| 20260506185008 | 62 | 43 | 7.0 | 13.0 | 0.00 | 0.00 | 0.00 | 51 | 1017.2 |
| 20260506184516 | 63 | 71 | 6.0 | 13.0 | 0.00 | 0.00 | 0.00 | 51 | 1017.2 |
| 20260506184005 | 63 | 49 | 5.0 | 15.0 | 0.00 | 0.00 | 0.00 | 52 | 1017.1 |
| 20260506183509 | 63 | 18 | 2.0 | 15.0 | 0.00 | 0.00 | 0.00 | 53 | 1017.2 |
| 20260506183018 | 64 | 31 | 7.0 | 14.0 | 0.00 | 0.00 | 0.00 | 52 | 1017.4 |
| 20260506182506 | 64 | 27 | 6.0 | 12.0 | 0.00 | 0.00 | 0.00 | 53 | 1017.3 |
| 20260506182011 | 64 | 22 | 5.0 | 13.0 | 0.00 | 0.00 | 0.00 | 52 | 1017.4 |
| 20260506181510 | 63 | 15 | 6.0 | 15.0 | 0.00 | 0.00 | 0.00 | 53 | 1017.4 |
| 20260506181011 | 62 | 96 | 7.0 | 15.0 | 0.00 | 0.00 | 0.00 | 53 | 1017.5 |
| 20260506180506 | 63 | 27 | 9.0 | 15.0 | 0.00 | 0.00 | 0.00 | 51 | 1017.6 |
| 20260506180006 | 63 | 39 | 8.0 | 16.0 | 0.00 | 0.00 | 0.00 | 51 | 1017.5 |
| 20260506175506 | 63 | 19 | 6.0 | 16.0 | 0.00 | 0.00 | 0.00 | 52 | 1017.6 |
| 20260506175003 | 62 | 26 | 5.0 | 17.0 | 0.00 | 0.00 | 0.00 | 54 | 1017.6 |
| 20260506174505 | 63 | 32 | 9.0 | 17.0 | 0.00 | 0.00 | 0.00 | 52 | 1017.8 |
| 20260506174008 | 63 | 44 | 8.0 | 15.0 | 0.00 | 0.00 | 0.00 | 52 | 1017.9 |
| 20260506173508 | 63 | 341 | 5.0 | 15.0 | 0.00 | 0.00 | 0.00 | 54 | 1017.8 |
| 20260506173021 | 62 | 19 | 8.0 | 19.0 | 0.00 | 0.00 | 0.00 | 49 | 1018.0 |
| 20260506172506 | 62 | 63 | 9.0 | 19.0 | 0.00 | 0.00 | 0.00 | 53 | 1018.2 |
| 20260506172005 | 61 | 20 | 12.0 | 19.0 | 0.00 | 0.00 | 0.00 | 52 | 1018.5 |
| 20260506171520 | 61 | 52 | 10.0 | 15.0 | 0.00 | 0.00 | 0.00 | 52 | 1018.6 |
| 20260506171005 | 61 | 50 | 7.0 | 13.0 | 0.00 | 0.00 | 0.00 | 52 | 1018.6 |
| 20260506170504 | 61 | 73 | 6.0 | 13.0 | 0.00 | 0.00 | 0.00 | 53 | 1018.8 |
| 20260506170021 | 61 | 88 | 6.0 | 11.0 | 0.00 | 0.00 | 0.00 | 52 | 1018.9 |
| 20260506165508 | 61 | 39 | 5.0 | 15.0 | 0.00 | 0.00 | 0.00 | 56 | 1019.1 |
| 20260506165010 | 60 | 40 | 5.0 | 15.0 | 0.00 | 0.00 | 0.00 | 56 | 1019.0 |
| 20260506164516 | 60 | 35 | 3.0 | 15.0 | 0.00 | 0.00 | 0.00 | 57 | 1019.0 |
| 20260506164007 | 60 | 21 | 7.0 | 12.0 | 0.00 | 0.00 | 0.00 | 56 | 1018.9 |
| 20260506163511 | 60 | 19 | 4.0 | 12.0 | 0.00 | 0.00 | 0.00 | 55 | 1018.7 |
| 20260506163030 | 60 | 45 | 4.0 | 14.0 | 0.00 | 0.00 | 0.00 | 56 | 1018.6 |
| 20260506162507 | 60 | 33 | 5.0 | 14.0 | 0.00 | 0.00 | 0.00 | 57 | 1018.4 |
| 20260506162011 | 60 | 354 | 6.0 | 14.0 | 0.00 | 0.00 | 0.00 | 57 | 1018.4 |
| 20260506161511 | 59 | 97 | 8.0 | 18.0 | 0.00 | 0.00 | 0.00 | 58 | 1018.5 |
| 20260506161007 | 59 | 26 | 8.0 | 18.0 | 0.00 | 0.00 | 0.00 | 55 | 1018.6 |
| 20260506160510 | 59 | 12 | 8.0 | 14.0 | 0.00 | 0.00 | 0.00 | 59 | 1018.5 |
| 20260506160012 | 59 | 27 | 7.0 | 14.0 | 0.00 | 0.00 | 0.00 | 56 | 1018.2 |
| 20260506155508 | 59 | 46 | 6.0 | 11.0 | 0.00 | 0.00 | 0.00 | 57 | 1018.0 |
| 20260506155007 | 59 | 87 | 3.0 | 11.0 | 0.00 | 0.00 | 0.00 | 59 | 1017.9 |
| 20260506154531 | 58 | 19 | 5.0 | 13.0 | 0.00 | 0.00 | 0.00 | 58 | 1017.9 |
| 20260506154017 | 58 | 46 | 7.0 | 13.0 | 0.00 | 0.00 | 0.00 | 58 | 1017.8 |
| 20260506153509 | 58 | 75 | 6.0 | 13.0 | 0.00 | 0.00 | 0.00 | 60 | 1017.7 |
| 20260506153025 | 57 | 51 | 8.0 | 16.0 | 0.00 | 0.00 | 0.00 | 59 | 1017.6 |
| 20260506152509 | 57 | 72 | 9.0 | 16.0 | 0.00 | 0.00 | 0.00 | 60 | 1017.3 |
| 20260506152005 | 56 | 44 | 6.0 | 16.0 | 0.00 | 0.00 | 0.00 | 60 | 1017.3 |
| 20260506151524 | 56 | 30 | 9.0 | 15.0 | 0.00 | 0.00 | 0.00 | 60 | 1017.1 |
| 20260506151008 | 55 | 56 | 5.0 | 15.0 | 0.00 | 0.00 | 0.00 | 61 | 1017.0 |
| 20260506150509 | 55 | 40 | 9.0 | 20.0 | 0.00 | 0.00 | 0.00 | 60 | 1016.9 |
| 20260506150020 | 55 | 62 | 10.0 | 20.0 | 0.00 | 0.00 | 0.00 | 61 | 1017.1 |
| 20260506145507 | 55 | 58 | 9.0 | 17.0 | 0.00 | 0.00 | 0.00 | 62 | 1017.0 |
| 20260506145008 | 55 | 17 | 8.0 | 18.0 | 0.00 | 0.00 | 0.00 | 63 | 1017.1 |
| 20260506144522 | 54 | 50 | 7.0 | 18.0 | 0.00 | 0.00 | 0.00 | 63 | 1017.1 |
| 20260506144006 | 54 | 1 | 7.0 | 17.0 | 0.00 | 0.00 | 0.00 | 64 | 1017.1 |
| 20260506143512 | 54 | 29 | 7.0 | 15.0 | 0.00 | 0.00 | 0.00 | 64 | 1017.1 |
| 20260506143018 | 54 | 75 | 6.0 | 15.0 | 0.00 | 0.00 | 0.00 | 65 | 1017.1 |
| 20260506142511 | 53 | 63 | 7.0 | 17.0 | 0.00 | 0.00 | 0.00 | 67 | 1017.0 |
| 20260506142010 | 52 | 29 | 7.0 | 17.0 | 0.00 | 0.00 | 0.00 | 68 | 1017.0 |
| 20260506141516 | 52 | 30 | 10.0 | 17.0 | 0.00 | 0.00 | 0.00 | 69 | 1017.0 |
| 20260506141009 | 52 | 28 | 7.0 | 15.0 | 0.00 | 0.00 | 0.00 | 69 | 1017.0 |
| 20260506140511 | 51 | 15 | 7.0 | 19.0 | 0.00 | 0.00 | 0.00 | 70 | 1017.2 |
| 20260506140012 | 51 | 10 | 11.0 | 19.0 | 0.00 | 0.00 | 0.00 | 70 | 1017.2 |
| 20260506135510 | 51 | 47 | 4.0 | 15.0 | 0.00 | 0.00 | 0.00 | 72 | 1017.1 |
| 20260506135010 | 51 | 44 | 6.0 | 15.0 | 0.00 | 0.00 | 0.00 | 71 | 1016.9 |
| 20260506134524 | 51 | 27 | 5.0 | 15.0 | 0.00 | 0.00 | 0.00 | 73 | 1017.0 |
| 20260506134017 | 50 | 27 | 10.0 | 15.0 | 0.00 | 0.00 | 0.00 | 72 | 1017.2 |
| 20260506133508 | 50 | 15 | 8.0 | 15.0 | 0.00 | 0.00 | 0.00 | 73 | 1017.4 |
| 20260506133026 | 50 | 18 | 5.0 | 17.0 | 0.00 | 0.00 | 0.00 | 73 | 1017.1 |
| 20260506132510 | 50 | 33 | 10.0 | 17.0 | 0.00 | 0.00 | 0.00 | 74 | 1017.1 |
| 20260506132010 | 50 | 67 | 6.0 | 14.0 | 0.00 | 0.00 | 0.00 | 74 | 1017.1 |
| 20260506131524 | 50 | 11 | 8.0 | 14.0 | 0.00 | 0.00 | 0.00 | 74 | 1017.2 |
| 20260506131008 | 49 | 19 | 5.0 | 14.0 | 0.00 | 0.00 | 0.00 | 75 | 1017.2 |
| 20260506130513 | 49 | 23 | 7.0 | 15.0 | 0.00 | 0.00 | 0.00 | 75 | 1017.0 |
| 20260506130024 | 49 | 19 | 8.0 | 20.0 | 0.00 | 0.00 | 0.00 | 75 | 1016.8 |
| 20260506125508 | 49 | 21 | 8.0 | 20.0 | 0.00 | 0.00 | 0.00 | 75 | 1017.1 |
| 20260506125010 | 49 | 17 | 8.0 | 16.0 | 0.00 | 0.00 | 0.00 | 76 | 1017.0 |
| 20260506124524 | 49 | 44 | 9.0 | 19.0 | 0.00 | 0.00 | 0.00 | 76 | 1017.0 |
| 20260506124010 | 49 | 32 | 8.0 | 19.0 | 0.00 | 0.00 | 0.00 | 76 | 1017.0 |
| 20260506123509 | 49 | 16 | 7.0 | 18.0 | 0.00 | 0.00 | 0.00 | 76 | 1016.8 |
| 20260506123019 | 49 | 21 | 12.0 | 18.0 | 0.00 | 0.00 | 0.00 | 76 | 1017.0 |
| 20260506122510 | 49 | 22 | 10.0 | 16.0 | 0.00 | 0.00 | 0.00 | 75 | 1016.6 |
| 20260506122011 | 49 | 347 | 9.0 | 18.0 | 0.00 | 0.00 | 0.00 | 75 | 1016.7 |
| 20260506121517 | 49 | 292 | 11.0 | 18.0 | 0.00 | 0.00 | 0.00 | 75 | 1016.5 |
| 20260506121010 | 49 | 32 | 7.0 | 18.0 | 0.00 | 0.00 | 0.00 | 75 | 1016.3 |
| 20260506120514 | 49 | 47 | 5.0 | 17.0 | 0.00 | 0.00 | 0.00 | 75 | 1016.1 |
| 20260506120031 | 49 | 15 | 6.0 | 12.0 | 0.00 | 0.00 | 0.00 | 75 | 1016.3 |
| 20260506115510 | 49 | 39 | 4.0 | 15.0 | 0.00 | 0.00 | 0.00 | 75 | 1016.4 |
| 20260506115006 | 49 | 11 | 9.0 | 15.0 | 0.00 | 0.00 | 0.00 | 75 | 1016.1 |
| 20260506114514 | 49 | 25 | 2.0 | 12.0 | 0.00 | 0.00 | 0.00 | 74 | 1016.3 |
| 20260506114005 | 49 | 332 | 3.0 | 17.0 | 0.00 | 0.00 | 0.00 | 74 | 1016.4 |
| 20260506113507 | 49 | 49 | 9.0 | 17.0 | 0.00 | 0.00 | 0.00 | 74 | 1016.4 |
| 20260506113015 | 49 | 356 | 7.0 | 15.0 | 0.00 | 0.00 | 0.00 | 74 | 1016.3 |
| 20260506112503 | 49 | 19 | 9.0 | 15.0 | 0.00 | 0.00 | 0.00 | 74 | 1016.2 |
| 20260506112008 | 49 | 38 | 7.0 | 15.0 | 0.00 | 0.00 | 0.00 | 74 | 1016.2 |
| 20260506111509 | 49 | 29 | 7.0 | 14.0 | 0.00 | 0.00 | 0.00 | 74 | 1016.2 |
| 20260506111010 | 49 | 23 | 4.0 | 12.0 | 0.00 | 0.00 | 0.00 | 73 | 1016.1 |
| 20260506110507 | 49 | 25 | 5.0 | 12.0 | 0.00 | 0.00 | 0.00 | 73 | 1016.0 |
| 20260506110005 | 50 | 37 | 3.0 | 13.0 | 0.00 | 0.00 | 0.00 | 73 | 1015.8 |
| 20260506105514 | 50 | 17 | 6.0 | 13.0 | 0.00 | 0.00 | 0.00 | 72 | 1015.6 |
| 20260506105007 | 50 | 41 | 4.0 | 13.0 | 0.00 | 0.00 | 0.00 | 72 | 1015.6 |
| 20260506104504 | 50 | 27 | 6.0 | 13.0 | 0.00 | 0.00 | 0.00 | 72 | 1015.7 |
| 20260506104007 | 50 | 59 | 4.0 | 13.0 | 0.00 | 0.00 | 0.00 | 72 | 1015.5 |
| 20260506103504 | 50 | 5 | 4.0 | 12.0 | 0.00 | 0.00 | 0.00 | 72 | 1015.5 |
| 20260506103024 | 50 | 41 | 4.0 | 13.0 | 0.00 | 0.00 | 0.00 | 72 | 1015.3 |
| 20260506102506 | 50 | 351 | 6.0 | 13.0 | 0.00 | 0.00 | 0.00 | 72 | 1015.2 |
| 20260506102006 | 50 | 29 | 4.0 | 11.0 | 0.00 | 0.00 | 0.00 | 73 | 1015.3 |
| 20260506101522 | 50 | 46 | 4.0 | 11.0 | 0.00 | 0.00 | 0.00 | 73 | 1015.5 |
| 20260506101008 | 50 | 30 | 4.0 | 10.0 | 0.00 | 0.00 | 0.00 | 73 | 1015.4 |
| 20260506100504 | 50 | 31 | 5.0 | 14.0 | 0.00 | 0.00 | 0.00 | 73 | 1015.3 |
| 20260506100020 | 50 | 22 | 4.0 | 14.0 | 0.00 | 0.00 | 0.00 | 73 | 1015.3 |
| 20260506095506 | 50 | 19 | 3.0 | 7.0 | 0.00 | 0.00 | 0.00 | 73 | 1015.2 |
| 20260506095007 | 50 | 23 | 3.0 | 9.0 | 0.00 | 0.00 | 0.00 | 73 | 1015.1 |
| 20260506094516 | 50 | 45 | 3.0 | 12.0 | 0.00 | 0.00 | 0.00 | 73 | 1015.2 |
| 20260506094003 | 50 | 10 | 4.0 | 12.0 | 0.00 | 0.00 | 0.00 | 73 | 1015.0 |
| 20260506093510 | 50 | 321 | 2.0 | 10.0 | 0.00 | 0.00 | 0.00 | 73 | 1014.7 |
| 20260506093014 | 50 | 44 | 4.0 | 10.0 | 0.00 | 0.00 | 0.00 | 73 | 1014.5 |
| 20260506092508 | 50 | 29 | 4.0 | 10.0 | 0.00 | 0.00 | 0.00 | 73 | 1014.3 |
| 20260506092011 | 50 | 303 | 3.0 | 10.0 | 0.00 | 0.00 | 0.00 | 73 | 1014.3 |
| 20260506091515 | 50 | 24 | 4.0 | 10.0 | 0.00 | 0.00 | 0.00 | 73 | 1014.1 |
| 20260506091008 | 50 | 301 | 5.0 | 12.0 | 0.00 | 0.00 | 0.00 | 73 | 1013.9 |
| 20260506090508 | 50 | 43 | 7.0 | 12.0 | 0.00 | 0.00 | 0.00 | 73 | 1013.5 |
| 20260506090009 | 50 | 18 | 5.0 | 11.0 | 0.00 | 0.00 | 0.00 | 73 | 1013.4 |
| 20260506085508 | 50 | 342 | 4.0 | 11.0 | 0.00 | 0.00 | 0.00 | 73 | 1013.3 |
| 20260506085006 | 50 | 12 | 4.0 | 14.0 | 0.00 | 0.00 | 0.00 | 73 | 1013.2 |
| 20260506084527 | 50 | 5 | 5.0 | 14.0 | 0.00 | 0.00 | 0.00 | 73 | 1013.2 |
| 20260506084007 | 50 | 21 | 3.0 | 11.0 | 0.00 | 0.00 | 0.00 | 73 | 1013.2 |
| 20260506083504 | 50 | 41 | 2.0 | 12.0 | 0.00 | 0.00 | 0.00 | 72 | 1013.2 |
| 20260506083027 | 50 | 44 | 5.0 | 12.0 | 0.00 | 0.00 | 0.00 | 72 | 1013.1 |
| 20260506082511 | 50 | 9 | 5.0 | 10.0 | 0.00 | 0.00 | 0.00 | 72 | 1012.9 |
| 20260506082003 | 50 | 55 | 5.0 | 10.0 | 0.00 | 0.00 | 0.00 | 72 | 1013.0 |
| 20260506081524 | 50 | 359 | 5.0 | 13.0 | 0.00 | 0.00 | 0.00 | 72 | 1012.9 |
| 20260506081011 | 50 | 50 | 4.0 | 13.0 | 0.00 | 0.00 | 0.00 | 72 | 1012.7 |
| 20260506080511 | 50 | 13 | 5.0 | 13.0 | 0.00 | 0.00 | 0.00 | 72 | 1012.8 |
| 20260506073512 | 50 | 37 | 4.0 | 13.0 | 0.00 | 0.00 | 0.00 | 71 | 1012.9 |
| 20260506073016 | 50 | 46 | 7.0 | 17.0 | 0.00 | 0.00 | 0.00 | 70 | 1012.9 |
| 20260506072509 | 50 | 11 | 6.0 | 17.0 | 0.00 | 0.00 | 0.00 | 70 | 1013.0 |
| 20260506072010 | 50 | 6 | 7.0 | 11.0 | 0.00 | 0.00 | 0.00 | 70 | 1013.1 |
| 20260506071512 | 50 | 17 | 4.0 | 13.0 | 0.00 | 0.00 | 0.00 | 70 | 1013.3 |
| 20260506071010 | 50 | 2 | 8.0 | 13.0 | 0.00 | 0.00 | 0.00 | 70 | 1013.3 |
| 20260506070507 | 50 | 23 | 5.0 | 13.0 | 0.00 | 0.00 | 0.00 | 70 | 1013.4 |
| 20260506062508 | 50 | 41 | 8.0 | 15.0 | 0.00 | 0.00 | 0.00 | 70 | 1012.7 |
| 20260506062011 | 50 | 13 | 9.0 | 21.0 | 0.00 | 0.00 | 0.00 | 70 | 1012.8 |
| 20260506061522 | 50 | 29 | 8.0 | 21.0 | 0.00 | 0.00 | 0.00 | 70 | 1012.8 |
| 20260506061008 | 50 | 32 | 9.0 | 20.0 | 0.00 | 0.00 | 0.00 | 70 | 1012.7 |
| 20260506060509 | 50 | 40 | 11.0 | 20.0 | 0.00 | 0.00 | 0.00 | 70 | 1012.7 |
| 20260506051003 | 50 | 31 | 9.0 | 16.0 | 0.00 | 0.00 | 0.00 | 72 | 1013.2 |
| 20260506050504 | 50 | 35 | 5.0 | 13.0 | 0.00 | 0.00 | 0.00 | 72 | 1012.9 |
| 20260506045012 | 50 | 35 | 8.0 | 16.0 | 0.00 | 0.00 | 0.00 | 73 | 1012.7 |
| 20260506044527 | 50 | 29 | 9.0 | 16.0 | 0.00 | 0.00 | 0.00 | 73 | 1012.8 |
| 20260506044003 | 50 | 14 | 8.0 | 16.0 | 0.00 | 0.00 | 0.00 | 74 | 1012.7 |
| 20260506043513 | 50 | 58 | 5.0 | 12.0 | 0.00 | 0.00 | 0.00 | 74 | 1012.6 |
| 20260506043008 | 50 | 39 | 7.0 | 17.0 | 0.00 | 0.00 | 0.00 | 74 | 1012.4 |
| 20260506042502 | 50 | 17 | 6.0 | 17.0 | 0.00 | 0.00 | 0.00 | 74 | 1012.5 |
| 20260506042007 | 50 | 34 | 9.0 | 16.0 | 0.00 | 0.00 | 0.00 | 75 | 1012.6 |
| 20260506041504 | 50 | 34 | 7.0 | 19.0 | 0.00 | 0.00 | 0.00 | 75 | 1012.8 |
| 20260506041007 | 50 | 33 | 9.0 | 16.0 | 0.00 | 0.00 | 0.00 | 75 | 1012.9 |
| 20260506040506 | 50 | 40 | 2.0 | 20.0 | 0.00 | 0.00 | 0.00 | 75 | 1012.8 |
| 20260506040004 | 50 | 55 | 6.0 | 20.0 | 0.00 | 0.00 | 0.00 | 75 | 1012.7 |
| 20260506035508 | 50 | 15 | 8.0 | 16.0 | 0.00 | 0.00 | 0.00 | 75 | 1012.7 |
| 20260506035006 | 50 | 36 | 6.0 | 18.0 | 0.00 | 0.00 | 0.00 | 75 | 1012.5 |
| 20260506034504 | 51 | 56 | 10.0 | 18.0 | 0.00 | 0.00 | 0.00 | 75 | 1012.6 |
| 20260506034007 | 50 | 42 | 2.0 | 12.0 | 0.00 | 0.00 | 0.00 | 75 | 1012.8 |